Tracking 23645 objects as of 21-Sep-2021
HD Live streaming from Space Station
objects crossing your sky now

EUTE 12 WEST A (AB 1)

Track EUTE 12 WEST A (AB 1) now!
EUTE 12 WEST A (AB 1) is classified as:


NORAD ID: 27508
Int'l Code: 2002-040A
Perigee: 36,329.7 km
Apogee: 36,385.8 km
Inclination: 2.9 °
Period: 1,465.0 minutes
Semi major axis: 42728 km
RCS: 16.1652 m2 (large)
Launch date: August 28, 2002
Source: European Telecommunications Satellite Organization (EUTE)
Launch site: FRENCH GUIANA (FRGUI)

Twenty channels, telecommunications services between Europe and the Americas.
aabbcc
Your satellite tracking list
Your tracking list is empty




NASA's NSSDC Master Catalog

Two Line Element Set (TLE):
1 27508U 02040A   21264.04406426 -.00000116  00000-0  00000+0 0  9997
2 27508   2.8536  86.4990 0006560 345.4181  57.9267  0.98293110 69696
Source of the keplerian elements: AFSPC